Terminal Aerodrome Forecast
Issued by NWS La Crosse, WI

Home | Current Version | Previous Version | Text Only | Print | Product List | Glossary On
Versions: 1 2 3 4 5 6 7 8 9 10 11 12 13 14 15 16 17 18 19 20 21 22 23 24 25 26 27 28 29 30 31 32 33 34 35 36 37 38 39 40 41 42 43 44 45 46 47 48 49 50
000
FTUS43 KARX 220907 AAA
TAFRST
TAF AMD
KRST 220907Z 2209/2306 16017KT 1 1/2SM BR VCSH OVC002
     FM221500 14015G22KT 3SM -RA BR OVC004
     FM222000 11014KT 3SM -RA BR OVC007
     FM230000 08012KT 2SM -RASN BR OVC007=

USA.gov is the U.S. government's official web portal to all federal, state and local government web resources and services.